Regional Weather Roundup
Issued by NWS Sterling, VA

Home | Current Version | Previous Version | Text Only | Print | Product List | Glossary On
Versions: 1 2 3 4 5 6 7 8 9 10 11 12 13 14 15 16 17 18 19 20 21 22 23 24 25 26 27 28 29 30 31 32 33 34 35 36 37 38 39 40 41 42 43 44 45 46 47 48 49 50
000
ASUS41 KLWX 110811
RWRLWX

REGIONAL WEATHER ROUNDUP
NATIONAL WEATHER SERVICE BALTIMORE MD/WASHINGTON DC
300 AM EST MON DEC 11 2017

Note: "FAIR" indicates few or no clouds below 12,000 feet
with no significant weather and/or obstructions to visibility.
 TC=TEMPERATURE CELSIUS

 * =Non NWS site. Station does not report precipitation (e.g. rain,
    snow, etc.), thunder, or fog.

DCZ001-MDZ009-015-VAZ040>042-051-053>054-110900-
WASHINGTON METRO

CITY           SKY/WX    TMP DP  RH WIND       PRES   REMARKS
WASHINGTON NAT CLOUDY    38  29  70 SW7       30.05R
DULLES         CLOUDY    32  25  75 SE3       30.03R
ANDREWS AFB    CLOUDY    34  27  74 S5        30.02S
FT BELVOIR     CLOUDY    35  27  72 CALM      30.05R
QUANTICO       CLOUDY    38  28  67 SW5       30.06R
COLLEGE PARK*  CLOUDY    36  26  69 CALM      30.03S
LEESBURG*      CLOUDY    34  30  86 CALM      30.03R
GAITHERSBURG*  CLOUDY    34  24  67 S5        30.02R

$$

MDZ006>007-011-014-110900-
BALTIMORE METRO

CITY           SKY/WX    TMP DP  RH WIND       PRES   REMARKS
BWI AIRPORT    CLOUDY    35  26  69 W3        30.03S
MD SCIENCE CTR   N/A     38  27  64 MISG      30.03S
MARTIN STATE   CLOUDY    36  32  87 W5        30.05R
ANNAPOLIS      CLOUDY    37  28  70 S5        30.03F
FORT MEADE*    CLOUDY    32  28  86 CALM      30.05F

$$

MDZ012-015-019>023-110900-
MARYLAND EASTERN SHORE

CITY           SKY/WX    TMP DP  RH WIND       PRES   REMARKS
OCEAN CITY     CLOUDY    36  31  82 SW6       30.06F
SALISBURY      CLOUDY    35  29  78 SW7       30.05S
BAY BRIDGE AP* CLOUDY    37  27  65 S5        30.05F
CAMBRIDGE*     CLOUDY    32  30  93 CALM      30.05F
EASTON*        CLOUDY    38  29  69 N5        30.09S

$$

MDZ017>025-110900-
SOUTHERN MARYLAND

CITY           SKY/WX    TMP DP  RH WIND       PRES   REMARKS
PATUXENT RIVER CLOUDY    36  28  73 W6        30.04F
ST INIGOES     PTCLDY    38  28  67 SW10      30.05S
LEONARDTOWN*   CLOUDY    36  28  75 SW3       30.06S

$$

MDZ003>005-110900-
NORTH CENTRAL MARYLAND

CITY           SKY/WX    TMP DP  RH WIND       PRES   REMARKS
FREDERICK*     CLOUDY    32  25  74 CALM      30.05R
HAGERSTOWN APT MOCLDY    36  20  52 W10       29.99R WCI  28
WESTMINSTER*   CLOUDY    34  25  69 CALM      29.99S

$$

MDZ501>502-110900-
WESTERN MARYLAND

CITY           SKY/WX    TMP DP  RH WIND       PRES   REMARKS
OAKLAND*       MOCLDY    27  18  69 W13G18    29.86S WCI  16
CUMBERLAND*    CLOUDY    36  21  55 CALM      30.03S

$$

VAZ025>031-110900-
SHENANDOAH VALLEY

CITY           SKY/WX    TMP DP  RH WIND       PRES   REMARKS
WINCHESTER*    CLOUDY    32  21  64 S3        30.00S
FRONT ROYAL*   MOCLDY    32  21  64 CALM      29.99S
LURAY*         PTCLDY    30  23  74 SE3       29.99S
NEW MARKET*    MOCLDY    26  22  87 CALM      29.99R
STAUNTON*      CLEAR     29  19  65 SW5       30.01R
WAYNESBORO*    CLEAR     32  17  55 SW3       29.98S

$$

WVZ021-048>050-054>055-110900-
EASTERN WEST VIRGINIA PANHANDLE

CITY           SKY/WX    TMP DP  RH WIND       PRES   REMARKS
MARTINSBURG    CLOUDY    36  19  50 VRB3      30.00R
PETERSBURG*    CLOUDY    38  19  46 SW7G23    29.98R

$$

VAZ036>039-050-110900-
CENTRAL FOOTHILLS

CITY           SKY/WX    TMP DP  RH WIND       PRES   REMARKS
CHARLOTTESVILL CLEAR     32  23  69 S9        30.01R WCI  24
CULPEPER*      FAIR      30  24  78 CALM      30.04S
ORANGE*        PTCLDY    32  27  80 CALM      30.03R
GORDONSVILLE*  PTCLDY    29  26  88 CALM      30.03R
WARRENTON*     PTCLDY    31  24  75 S3        30.02S

$$

VAZ055>057-110900-
NORTH AND CENTRAL PIEDMONT

CITY           SKY/WX    TMP DP  RH WIND       PRES   REMARKS
FREDERICKSBRG* CLOUDY    36  29  74 CALM      30.04S
STAFFORD*      CLOUDY    34  27  74 CALM      30.08R

$$

NCZ024-NYZ072-PAZ021-071-VAZ022-071-110900-
OTHER REGIONAL OBSERVATIONS

CITY           SKY/WX    TMP DP  RH WIND       PRES   REMARKS
NEW YORK CITY  CLOUDY    36  21  54 W9G17     30.00F WCI  29
PHILADELPHIA   FLURRIES  35  26  69 W12       30.05R WCI  27
PITTSBURGH     CLOUDY    33  19  56 W6        29.97R
ROANOKE        CLEAR     37  19  48 W9        30.05F
RICHMOND       MOCLDY    35  26  69 SW6       30.05F
RALEIGH        CLEAR     29  24  82 SW5       30.13F

$$

ANZ530>537-110900-
MARINE OBSERVATIONS

STATION/POSITION TIME  TEMP    WIND        PRES
                       AIR SEA DIR/SP/G
                 (UTC) (F)     (DEG/KT/KT) (MB)
THOMAS PT LIGHT  0800   39 47  180/  6/  8   N/A
BALT KEY BRIDGE  0748   38     280/  3/  4 1016.8R
COVE POINT       0748   37     280/ 12/ 17 1017.7F
LEWISETTA        0736   37 43  240/  8/  9 1017.6F
SOLOMONS ISLAND  0748   38 48  260/  5/  7 1017.1F
PINEY POINT      0736          290/  5/  8   N/A

$$




USA.gov is the U.S. government's official web portal to all federal, state and local government web resources and services.